Wind_Speed
4 3 3 3 3 3 3 4 3 3 3 4 4 5 5 5 5 5 6 6 6 6 6 6 6 7 7 7 7 7 7 7 6 6 6 6 5 5 5 5 6 6 5
4 4 4 3 4 4 4 4 4 4 5 5 5 5 6 6 6 6 6 6 7 7 8 8 8 8 7 7 8 7 7 7 7 6 7 7 6 6 6 7 6 6 6
5 5 5 4 4 5 5 5 6 6 6 6 6 6 6 6 6 6 7 7 7 8 9 9 9 9 9 9 9 8 7 8 8 7 7 7 7 7 8 7 7 7 7
5 5 6 5 5 5 6 6 7 7 7 7 7 7 7 6 6 7 8 8 8 9 9 9 10 10 10 10 10 9 8 8 8 8 8 8 8 8 8 9 8 8 8
6 6 6 6 7 6 6 6 6 7 7 7 7 8 8 7 7 7 8 9 9 9 9 9 10 10 11 11 11 10 10 9 9 9 9 9 9 8 9 9 10 10 9
6 6 6 7 7 7 6 7 6 7 7 7 7 8 8 8 7 8 8 9 9 9 9 9 10 10 10 10 10 10 10 10 10 10 10 10 10 9 9 10 10 10 10
7 7 7 7 7 7 7 6 7 7 7 7 8 8 8 8 9 9 9 9 9 9 9 9 10 10 11 11 11 11 11 11 10 10 10 10 10 9 10 10 10 11 11
6 7 6 6 7 7 7 7 8 8 8 8 8 9 9 8 8 9 9 9 9 10 10 11 11 11 11 11 12 12 12 12 11 11 10 10 10 10 10 11 11 11 11
6 6 6 6 6 7 7 8 8 8 8 8 9 9 9 9 9 9 9 10 10 11 11 11 11 11 11 12 12 13 13 13 12 12 11 11 11 11 12 12 12 12 12
5 5 6 6 6 7 7 7 7 7 8 8 9 9 9 10 10 9 9 10 10 10 11 11 10 10 11 11 12 11 12 12 12 13 12 12 12 12 13 12 13 13 13
4 5 5 5 6 6 6 6 7 7 8 8 9 9 9 10 10 10 10 9 10 11 11 11 10 10 12 12 12 12 12 12 12 12 13 13 13 12 12 12 13 13 13
4 4 5 5 5 6 6 6 7 7 8 8 9 9 9 10 10 10 10 11 11 11 12 12 12 13 13 12 12 12 12 12 12 12 12 13 13 13 12 13 13 13 13
5 5 5 5 5 6 6 6 7 8 8 8 9 9 10 10 11 11 11 12 12 12 12 12 12 12 13 13 13 12 12 13 12 12 13 12 13 13 12 13 13 13 13
5 6 6 6 6 6 7 7 7 8 8 9 9 10 10 11 11 12 12 12 12 12 12 12 11 11 12 12 12 12 12 12 12 12 12 12 13 13 13 14 14 14 14
6 6 6 6 6 7 7 8 8 8 9 10 10 11 11 11 11 12 12 12 12 12 12 12 12 11 11 12 12 12 12 12 12 11 11 12 12 13 13 14 14 15 15
7 7 7 7 7 8 8 8 8 9 9 10 10 11 11 12 12 12 12 13 12 12 12 12 13 12 12 12 11 12 12 11 12 11 11 12 12 12 13 13 14 14 15
8 8 8 8 8 8 8 9 9 9 10 10 10 11 11 12 12 12 12 12 12 12 12 13 12 12 12 12 11 11 12 12 12 12 12 12 12 12 12 13 13 14 15
8 8 8 8 8 9 9 9 10 11 10 11 11 11 12 11 11 11 11 11 11 11 11 12 12 12 11 11 11 11 12 12 13 13 13 13 14 13 13 14 14 14 15
9 9 9 9 9 9 10 10 11 12 12 12 12 12 12 12 11 11 11 11 11 11 11 11 10 11 11 10 11 11 12 12 13 14 14 14 14 14 14 14 14 14 14
9 9 9 9 9 10 10 10 11 12 13 13 13 13 12 12 11 11 11 11 11 11 10 10 10 10 10 11 11 12 12 13 14 14 14 14 14 14 14 14 14 14 15
11 11 11 10 10 10 10 10 11 12 12 13 13 12 12 12 12 11 11 11 11 11 11 11 11 11 11 11 11 12 12 13 14 14 14 14 14 14 14 14 14 14 14
11 12 12 11 11 11 12 11 11 12 13 13 13 13 13 13 13 12 12 12 12 12 12 13 13 12 13 13 12 13 13 13 14 14 14 14 14 14 14 14 14 14 14
12 12 13 12 12 12 12 11 12 13 13 13 13 13 12 13 13 13 13 13 13 13 13 13 13 13 14 14 14 14 15 15 15 15 15 15 15 15 16 15 15 15 14
13 13 13 13 13 13 13 13 13 12 12 13 13 13 13 14 13 14 14 15 15 15 15 14 15 15 15 16 16 16 16 16 16 16 17 17 16 16 16 16 16 15 15
13 14 14 14 14 13 13 13 14 13 14 14 14 14 14 14 15 15 15 16 16 16 16 16 17 17 17 17 17 17 18 18 18 17 18 18 18 18 17 17 17 17 17
13 14 14 14 14 14 13 14 14 15 15 15 15 14 14 14 15 16 16 17 17 17 17 17 18 18 18 19 19 20 19 19 19 19 19 19 19 19 19 18 18 18 18
Wind_Direction
235 242 255 266 257 248 248 252 261 270 271 273 269 275 270 268 269 259 254 252 254 254 255 256 253 254 255 253 245 243 241 236 231 233 233 233 232 228 229 237 236 234 236
240 245 254 263 252 253 259 257 263 270 274 275 275 277 274 268 262 257 255 255 256 255 254 254 255 255 255 252 247 247 242 238 234 234 235 238 240 235 238 240 242 240 240
246 251 258 268 266 256 257 261 262 268 274 280 275 277 273 268 264 255 254 257 260 260 259 257 254 255 254 253 248 246 242 240 238 238 242 245 244 241 242 241 244 245 244
250 254 259 264 266 261 260 265 264 264 269 276 274 272 269 268 268 261 261 262 263 264 264 265 258 253 253 255 250 245 243 243 244 245 246 247 246 244 240 240 243 248 249
256 256 258 259 260 260 259 262 263 263 270 276 273 268 266 266 268 266 264 266 264 266 267 266 260 255 253 254 251 246 245 246 246 248 246 249 249 248 245 243 245 249 251
257 260 260 258 259 255 255 259 263 266 276 278 277 271 268 265 263 263 267 265 262 266 269 268 261 258 257 256 251 247 249 250 250 254 252 250 251 250 246 245 247 249 250
256 259 260 258 260 257 256 257 262 269 276 278 279 276 272 268 265 263 262 262 263 264 265 266 263 259 259 256 255 253 254 254 256 255 253 252 253 252 248 249 251 251 251
258 259 263 263 260 257 256 259 267 273 275 275 276 275 273 272 272 267 263 264 266 263 263 264 264 263 263 260 258 258 258 255 255 257 255 254 256 255 252 250 251 252 252
262 262 262 262 258 257 260 261 265 271 275 276 275 274 275 278 280 276 270 268 268 268 266 266 266 267 265 263 263 259 259 257 255 254 255 256 257 257 256 253 252 252 252
266 266 263 261 258 260 263 265 270 273 276 279 277 276 276 278 281 278 277 274 272 272 271 269 270 268 264 263 263 261 258 256 255 251 254 257 257 259 255 252 252 251 251
272 272 273 261 257 260 263 266 270 276 278 279 279 277 277 278 280 280 279 277 277 275 274 269 271 266 262 261 259 258 257 256 255 252 251 252 255 254 249 248 248 248 250
271 266 267 264 262 260 266 269 273 279 281 279 279 279 281 281 281 281 281 280 281 278 277 275 273 271 264 262 260 258 257 258 257 254 252 254 254 250 246 245 247 249 250
268 270 270 267 268 270 272 274 276 279 281 281 281 282 284 284 285 285 284 283 282 280 280 280 276 271 267 263 261 258 259 259 257 260 259 257 254 251 251 251 251 250 251
262 266 269 269 270 272 273 277 280 282 283 283 284 285 285 285 286 286 286 285 282 279 279 280 276 276 274 268 265 261 260 258 259 262 260 258 258 258 257 256 255 253 251
261 263 268 268 267 271 274 280 280 283 286 286 284 283 282 283 284 284 285 285 283 279 278 276 272 275 274 268 265 263 264 262 261 261 262 263 262 262 260 259 258 256 255
265 265 265 269 270 273 279 281 284 286 287 287 286 286 286 286 286 286 286 285 284 280 277 273 271 274 271 270 266 262 261 260 261 263 261 260 261 260 260 261 260 258 257
264 266 266 267 272 276 281 282 285 287 288 290 290 289 290 291 289 286 285 285 284 280 276 272 272 272 271 271 268 263 260 258 259 260 258 259 260 259 259 261 261 261 260
262 261 265 269 273 278 283 284 284 286 288 290 292 292 293 293 290 286 284 284 284 282 280 275 275 273 271 270 267 265 264 263 263 262 261 260 260 261 261 261 262 262 261
264 263 266 270 275 278 280 284 287 288 288 289 290 291 290 290 289 287 286 285 285 283 282 276 275 269 267 266 264 265 267 266 267 268 267 264 263 262 261 262 262 261 262
267 268 268 270 273 277 282 285 287 288 290 291 291 290 289 288 288 288 286 284 286 285 282 277 275 272 269 266 265 266 268 269 270 270 270 267 265 264 262 261 261 260 261
266 268 268 270 272 274 278 282 286 288 290 293 295 293 289 286 284 285 285 285 285 284 281 278 277 275 271 267 267 268 270 271 271 271 271 270 269 268 262 262 260 262 262
264 266 267 271 273 276 277 277 285 287 287 291 295 293 289 284 282 282 284 285 285 283 279 276 277 275 272 268 268 269 270 271 272 271 270 270 270 269 267 268 267 267 263
266 266 267 272 274 276 279 282 285 285 285 287 290 289 287 284 282 282 285 284 284 284 280 277 276 276 274 270 268 268 268 269 270 271 269 267 267 270 270 271 270 270 268
267 266 268 271 274 277 280 281 284 287 287 287 288 288 289 288 285 284 283 283 283 282 282 279 276 276 277 274 271 269 269 270 270 269 268 266 267 269 270 269 269 268 268
268 268 269 271 272 274 275 277 280 283 287 290 293 290 289 289 285 283 283 283 282 281 281 280 277 276 276 274 272 271 270 270 270 268 265 265 265 267 268 267 266 267 265
271 270 269 268 269 270 272 276 281 284 287 290 294 291 288 287 285 282 283 285 284 281 280 278 277 275 275 274 272 270 269 270 269 267 265 264 264 265 266 266 264 264 264
Height
5872 5872 5872 5872 5872 5872 5872 5872 5873 5873 5873 5873 5873 5873 5873 5873 5873 5873 5873 5873 5873 5873 5873 5873 5873 5873 5873 5873 5873 5873 5873 5874 5874 5874 5874 5874 5875 5875 5875 5875 5875 5875 5875
5872 5872 5872 5872 5871 5871 5872 5872 5872 5872 5872 5872 5872 5872 5872 5872 5872 5872 5872 5872 5872 5872 5872 5872 5872 5872 5872 5872 5872 5872 5872 5873 5873 5873 5873 5873 5874 5874 5874 5874 5874 5874 5875
5871 5871 5871 5871 5871 5871 5871 5871 5871 5871 5871 5871 5871 5871 5871 5871 5871 5871 5871 5871 5870 5870 5870 5870 5870 5870 5870 5870 5871 5871 5871 5872 5872 5872 5872 5872 5872 5873 5873 5873 5873 5873 5874
5870 5870 5870 5870 5870 5870 5870 5870 5870 5870 5870 5870 5870 5870 5870 5870 5870 5869 5869 5869 5869 5869 5869 5868 5868 5869 5869 5869 5869 5869 5870 5870 5870 5871 5871 5871 5871 5871 5871 5872 5872 5872 5872
5868 5868 5868 5868 5868 5869 5869 5869 5869 5869 5869 5869 5869 5869 5868 5868 5868 5868 5868 5867 5867 5867 5867 5867 5867 5867 5867 5867 5867 5867 5868 5868 5869 5869 5869 5869 5869 5870 5870 5870 5870 5871 5871
5867 5867 5867 5867 5867 5867 5868 5868 5868 5868 5868 5868 5868 5867 5867 5867 5867 5867 5866 5866 5865 5865 5865 5865 5865 5865 5865 5865 5865 5866 5866 5866 5867 5867 5867 5867 5868 5868 5868 5868 5868 5869 5869
5865 5865 5866 5866 5866 5866 5866 5866 5866 5867 5867 5867 5866 5866 5866 5865 5865 5865 5864 5864 5864 5863 5863 5863 5863 5863 5863 5863 5863 5864 5864 5864 5865 5865 5865 5865 5865 5866 5866 5866 5866 5867 5867
5863 5864 5864 5864 5864 5864 5865 5865 5865 5865 5865 5865 5865 5864 5864 5864 5863 5863 5862 5862 5862 5861 5861 5861 5861 5861 5860 5861 5861 5861 5861 5862 5862 5863 5863 5863 5863 5863 5863 5864 5864 5864 5864
5862 5862 5862 5863 5863 5863 5863 5863 5863 5863 5863 5863 5863 5863 5862 5862 5861 5861 5860 5860 5859 5859 5859 5858 5858 5858 5858 5858 5858 5858 5859 5859 5860 5860 5861 5861 5861 5861 5860 5860 5861 5861 5862
5861 5861 5861 5861 5861 5862 5862 5862 5862 5862 5862 5862 5861 5861 5861 5860 5860 5859 5858 5858 5857 5857 5856 5856 5856 5856 5856 5855 5855 5856 5856 5856 5857 5857 5858 5858 5858 5857 5857 5857 5858 5859 5859
5859 5859 5859 5859 5860 5860 5860 5860 5860 5860 5860 5860 5859 5859 5859 5858 5858 5857 5857 5855 5855 5855 5854 5854 5853 5853 5853 5853 5853 5853 5853 5854 5854 5854 5855 5855 5854 5854 5854 5854 5855 5856 5856
5858 5858 5858 5858 5858 5858 5858 5858 5858 5858 5858 5858 5857 5857 5856 5856 5855 5855 5855 5854 5853 5852 5852 5851 5851 5851 5850 5850 5850 5850 5850 5851 5851 5851 5851 5852 5852 5852 5851 5851 5852 5853 5854
5857 5857 5857 5857 5857 5857 5857 5857 5857 5857 5856 5856 5855 5855 5854 5853 5853 5852 5852 5851 5851 5850 5849 5849 5848 5848 5847 5847 5847 5847 5847 5848 5848 5849 5849 5849 5849 5849 5849 5849 5850 5850 5851
5855 5855 5855 5855 5855 5855 5855 5855 5855 5855 5854 5854 5853 5853 5852 5851 5850 5849 5849 5848 5848 5847 5846 5846 5845 5845 5845 5844 5844 5844 5845 5845 5845 5845 5846 5846 5846 5846 5846 5846 5847 5847 5848
5853 5854 5854 5854 5853 5853 5853 5853 5853 5853 5852 5852 5851 5850 5849 5848 5848 5847 5846 5845 5845 5844 5843 5843 5842 5842 5842 5842 5842 5842 5842 5842 5842 5842 5843 5843 5843 5843 5843 5843 5844 5844 5845
5852 5852 5852 5852 5852 5851 5851 5851 5851 5850 5850 5849 5848 5847 5847 5845 5844 5843 5842 5842 5841 5840 5840 5839 5839 5839 5839 5839 5839 5839 5839 5839 5839 5840 5840 5840 5839 5839 5840 5840 5840 5841 5841
5850 5849 5850 5849 5849 5849 5849 5849 5848 5848 5847 5846 5845 5844 5843 5842 5841 5840 5839 5838 5838 5837 5837 5836 5836 5836 5835 5835 5835 5835 5836 5836 5836 5836 5836 5836 5836 5836 5836 5837 5837 5837 5838
5847 5847 5847 5847 5847 5847 5846 5846 5845 5845 5844 5843 5842 5841 5840 5839 5837 5836 5836 5835 5835 5834 5834 5834 5833 5833 5832 5832 5832 5832 5833 5833 5833 5833 5833 5833 5833 5833 5833 5833 5834 5834 5834
5845 5845 5845 5845 5844 5844 5844 5843 5842 5842 5841 5840 5839 5838 5837 5835 5834 5834 5833 5832 5832 5831 5831 5830 5830 5830 5830 5829 5829 5829 5830 5830 5830 5830 5830 5830 5830 5830 5830 5830 5830 5830 5830
5842 5842 5842 5842 5842 5841 5840 5840 5839 5839 5838 5837 5836 5834 5833 5832 5831 5831 5830 5830 5829 5828 5828 5827 5827 5827 5827 5826 5826 5826 5826 5826 5826 5826 5826 5826 5826 5826 5826 5827 5827 5826 5826
5840 5840 5839 5839 5839 5838 5838 5837 5836 5836 5835 5834 5832 5831 5830 5829 5828 5828 5827 5827 5826 5825 5825 5824 5824 5824 5823 5823 5823 5823 5823 5823 5823 5823 5823 5823 5823 5823 5823 5823 5823 5823 5823
5837 5836 5836 5836 5836 5835 5835 5834 5833 5833 5831 5830 5829 5828 5826 5826 5825 5824 5824 5823 5823 5822 5822 5821 5821 5820 5820 5820 5820 5820 5820 5820 5819 5819 5819 5819 5819 5819 5819 5819 5819 5819 5819
5833 5833 5833 5832 5832 5832 5831 5831 5830 5829 5828 5827 5825 5824 5823 5822 5822 5821 5820 5820 5819 5819 5818 5817 5817 5817 5816 5816 5816 5816 5816 5816 5816 5816 5816 5816 5816 5816 5815 5815 5815 5815 5815
5829 5829 5829 5829 5829 5828 5828 5827 5827 5826 5825 5824 5822 5821 5820 5819 5818 5817 5816 5816 5815 5814 5814 5813 5813 5813 5812 5812 5812 5812 5812 5812 5812 5812 5812 5812 5812 5811 5811 5811 5812 5811 5811
5825 5825 5825 5825 5825 5824 5824 5824 5823 5822 5821 5820 5819 5817 5816 5815 5814 5813 5812 5811 5811 5810 5809 5808 5808 5808 5807 5807 5807 5807 5807 5807 5807 5807 5807 5807 5807 5807 5807 5807 5807 5807 5807
5821 5821 5821 5821 5821 5821 5820 5820 5819 5818 5817 5816 5815 5813 5812 5811 5810 5809 5808 5807 5806 5805 5804 5803 5803 5802 5802 5802 5802 5801 5802 5802 5802 5802 5802 5802 5802 5802 5802 5802 5802 5802 5802